Find Starlink 38005

NORAD ID: 69677 Int'l Des: 2026-145 Owner: SPXS Country: US Constellation: starlink operational
LEOCIRCULARRETROGRADE

現在のビュー

3D地球を読み込み中...

About Starlink 38005

Starlink 38005 (NORAD 69677) is a starlink constellation satellite (v2 mini) launched Jun 25, 2026 by SPXS of US. It operates in LEO, CIRCULAR, RETROGRADE orbit with a mass of 575.00 kg.

次回通過

Passes for default location (London). Set your location on the main map for personalized predictions.

高度履歴

Loading altitude history...

軌道要素

1 69677U 26145A 26235.07974515 .00014629 00000-0 45453-3 0 9995
2 69677 97.2849 82.0840 0001501 117.7490 242.3906 15.33448091 9186
Epoch: Aug 23, 2026 • Age: 32 hours

現在のステータス

高度 477.8 km
遠地点 / 近地点 N/A
速度 7.63 km/s
衛星直下点 80.42°N, 165.22°W
打ち上げ日 Jun 25, 2026
運用期間 0.1 years
タイプ internet

技術仕様

分類 Payload
質量 575.00 kg
乾燥質量 530.00 kg
総質量 575.00 kg
長さ 0.30 m
直径 4.10 m
スパン 29.00 m
形状 Box + pan
製造者 SPXS
バスタイプ Starlink V2MO
フェーズステータス In Orbit
所有者/国 SPXS/US

Most Searched